Van, Turkey

6:59 AM +03 on March 29, 2017 (GMT +0300)
Van

Weather History for LTCI - December, 2013

Change the Weather History Date:

Friday, December 6, 2013

  Actual Average Record
Temperature  
Mean Temperature 36 °F -  
Max Temperature 42 °F 38 °F 50 °F (2005)
Min Temperature 30 °F 23 °F 10 °F (2016)
Degree Days  
Heating Degree Days 29    
Moisture  
Dew Point 29 °F    
Average Humidity 73    
Maximum Humidity 87    
Minimum Humidity 52    
Precipitation  
Precipitation 0.00 in 0.04 in - ()
Sea Level Pressure  
Sea Level Pressure 29.96 in    
Wind  
Wind Speed 4 mph ()    
Max Wind Speed 7 mph    
Max Gust Speed -    
Visibility 5.4 miles    
Events      
Averages and records for this station are not official NWS values.
T = Trace of Precipitation, MM = Missing Value Source: Averaged Metar Reports

Daily Weather History Graph

Daily Weather History Graph

Search for Another Location

Airport or City:

Trip Planner

Search our weather history database for the weather conditions in past years. The results will help you decide how hot, cold, wet, or windy it might be!

Date:

Astronomy

Dec. 06, 2013 Rise Set
Actual Time 6:09 AM EET 3:45 PM EET
Civil Twilight 5:40 AM EET 4:15 PM EET
Nautical Twilight 5:07 AM EET 4:48 PM EET
Astronomical Twilight 4:35 AM EET 5:20 PM EET
Moon 9:00 AM EET (12/6) 7:49 PM EET (12/6)
Length of Visible Light 10h 35m
Length of Day
9h 36m
Waxing Crescent, 16% of the Moon is Illuminated
Dec 6
Waxing Crescent
Dec 9
First Quarter
Dec 17
Full
Dec 25
Last Quarter
Jan 1
New

Hourly Weather History & Observations

Time (EET) Temp. Windchill Dew Point Humidity Pressure Visibility Wind Dir Wind Speed Gust Speed Precip Events Conditions
12:50 AM 33.8 °F 30.8 °F 30.2 °F 87% 29.86 in 4.3 mi East 3.5 mph - N/A   Mostly Cloudy
1:50 AM 33.8 °F 29.6 °F 30.2 °F 87% 29.86 in 5.0 mi North 4.6 mph - N/A   Mostly Cloudy
2:00 AM 34 °F - 30 °F 78%  in 5 mi North 4.6 mph - -   Mist
2:50 AM 33.8 °F 30.8 °F 30.2 °F 87% 29.86 in 5.0 mi East 3.5 mph - N/A   Mostly Cloudy
3:50 AM 33.8 °F 29.6 °F 30.2 °F 87% 29.86 in 5.0 mi ENE 4.6 mph - N/A   Mostly Cloudy
4:50 AM 33.8 °F - 30.2 °F 87% 29.89 in 5.0 mi Variable 2.3 mph - N/A   Mostly Cloudy
5:00 AM 34 °F - 30 °F 79%  in 5 mi NE 2.3 mph - -   Mist
5:50 AM 33.8 °F - 30.2 °F 87% 29.89 in 5.6 mi Variable 2.3 mph - N/A   Mostly Cloudy
6:50 AM 33.8 °F 29.6 °F 30.2 °F 87% 29.92 in 5.0 mi ENE 4.6 mph - N/A   Mostly Cloudy
7:50 AM 35.6 °F - 30.2 °F 81% 29.95 in 5.0 mi ENE 2.3 mph - N/A   Mostly Cloudy
8:00 AM 36 °F - 31 °F 75%  in 5 mi ENE 2.3 mph - -   Mist
8:50 AM 39.2 °F 35.9 °F 30.2 °F 70% 29.95 in 5.0 mi East 4.6 mph - N/A   Mostly Cloudy
9:50 AM 41.0 °F - 26.6 °F 57% 29.95 in 6.2 mi Variable 2.3 mph - N/A   Scattered Clouds
10:50 AM 39.2 °F 35.9 °F 28.4 °F 65% 29.95 in 6.2 mi NW 4.6 mph - N/A   Scattered Clouds
11:00 AM 40 °F - 28 °F 52%  in 6 mi NW 4.6 mph - -   Partly Cloudy
11:50 AM 41.0 °F 37.1 °F 30.2 °F 65% 29.95 in 6.2 mi West 5.8 mph - N/A   Scattered Clouds
12:50 PM 42.8 °F 40.1 °F 28.4 °F 57% 29.95 in 6.2 mi Variable 4.6 mph - N/A   Partly Cloudy
1:50 PM 41.0 °F 37.1 °F 30.2 °F 65% 29.95 in 6.2 mi WNW 5.8 mph - N/A   Partly Cloudy
2:00 PM 41 °F - 29 °F 52%  in 6 mi WNW 5.8 mph - -   Scattered Clouds
2:50 PM 41.0 °F 36.4 °F 30.2 °F 65% 29.98 in 6.2 mi NNW 6.9 mph - N/A   Partly Cloudy
3:50 PM 39.2 °F - 30.2 °F 70% 30.01 in 6.2 mi Variable 2.3 mph - N/A   Scattered Clouds
4:50 PM 37.4 °F 34.9 °F 30.2 °F 75% 30.01 in 5.0 mi SSE 3.5 mph - N/A   Scattered Clouds
5:00 PM 38 °F - 30 °F 63%  in 5 mi SSE 3.5 mph - -   Mist
5:50 PM 37.4 °F 33.8 °F 30.2 °F 75% 30.01 in 5.0 mi SSE 4.6 mph - N/A   Scattered Clouds
6:50 PM 33.8 °F - 26.6 °F 75% 30.01 in 6.2 mi Variable 1.2 mph - N/A   Mostly Cloudy
7:50 PM 35.6 °F 32.8 °F 28.4 °F 75% 30.04 in 6.2 mi SSE 3.5 mph - N/A   Scattered Clouds
8:00 PM 36 °F - 28 °F 63%  in 6 mi SSE 3.5 mph - -   Partly Cloudy
8:50 PM 33.8 °F 29.6 °F 28.4 °F 81% 30.04 in 5.0 mi East 4.6 mph - N/A   Scattered Clouds
9:50 PM 30.2 °F 26.7 °F 24.8 °F 80% 30.04 in 5.0 mi NE 3.5 mph - N/A   Scattered Clouds
10:50 PM 33.8 °F 27.7 °F 26.6 °F 75% 30.04 in 5.0 mi SE 6.9 mph - N/A   Scattered Clouds
11:00 PM 33 °F - 25 °F 62%  in 5 mi SE 6.9 mph - -   Mist
11:50 PM 33.8 °F 28.6 °F 24.8 °F 70% 30.01 in 5.0 mi SSE 5.8 mph - N/A   Scattered Clouds